Wind_Speed
23 50 49 56 46 42 42 43 40 39 40 41 39 42 43 42 41 40 43 47 48 52 57 59 65 67 67 68 70 71 70 72 74 76 75 79 78 82 77 74 63 55 50
45 31 45 42 43 42 41 41 37 39 40 38 39 37 37 38 41 42 46 48 52 56 59 62 66 67 69 70 71 70 71 74 78 77 78 80 81 83 80 69 58 50 44
45 43 35 35 39 37 37 36 36 38 38 38 37 35 38 41 44 47 48 52 56 59 62 65 66 67 70 70 71 71 73 76 79 78 80 82 84 83 83 68 54 50 44
36 38 38 31 33 33 31 33 35 37 39 39 38 37 41 46 47 50 51 55 59 61 63 64 66 69 70 70 72 73 76 78 78 80 82 85 86 82 81 67 57 46 41
33 35 36 28 30 29 30 29 34 38 40 42 41 41 42 45 48 52 55 58 60 62 64 65 68 69 70 71 72 73 77 78 79 81 85 88 85 85 75 62 54 45 38
38 34 32 25 33 36 34 38 40 40 41 42 46 47 48 50 53 56 59 61 61 62 66 68 68 69 70 71 73 75 77 79 81 85 89 86 91 80 67 57 49 41 36
38 30 34 35 35 36 41 46 45 52 46 45 46 48 50 52 55 59 62 61 65 68 70 70 68 68 70 71 73 77 78 82 85 90 92 92 88 72 61 51 45 38 34
36 29 36 31 39 39 39 39 50 56 57 49 48 49 50 52 54 58 60 62 66 70 71 70 67 68 67 70 73 78 82 86 88 93 95 94 78 65 54 46 40 34 32
43 33 37 37 46 48 44 39 43 56 59 50 51 48 46 51 53 57 58 63 65 66 67 68 69 69 67 68 74 78 83 87 91 94 94 87 69 57 48 43 36 32 30
44 40 44 43 31 33 31 24 30 41 41 49 49 48 51 52 46 51 57 66 66 66 67 70 69 66 65 68 75 80 83 87 92 95 94 79 64 52 43 41 37 31 30
46 48 48 49 30 24 24 34 39 48 50 52 49 47 47 49 54 62 68 70 68 65 65 66 65 64 66 70 76 80 83 89 93 92 94 76 62 53 43 38 36 34 37
57 55 56 50 48 48 51 45 47 52 44 46 51 54 55 62 62 67 66 66 64 63 62 65 63 65 67 72 76 77 84 88 91 92 86 69 60 53 45 41 37 37 36
49 61 59 49 48 48 41 38 31 42 46 51 62 68 68 68 61 61 62 61 60 63 63 62 62 66 67 73 76 79 83 87 87 86 77 67 58 54 48 42 38 37 37
55 57 61 52 52 45 37 30 35 45 47 48 57 59 56 56 57 59 58 58 61 63 60 61 62 66 70 75 75 81 83 85 88 89 78 68 60 55 52 47 43 41 40
54 53 51 48 46 41 37 38 29 32 46 56 62 65 72 67 58 57 56 58 62 59 55 58 64 65 72 75 75 81 85 84 89 93 84 74 63 56 52 49 47 44 44
68 73 72 64 54 41 44 44 40 38 43 56 63 71 63 60 56 61 59 57 60 53 52 56 63 67 74 73 79 82 84 86 92 97 91 82 70 61 56 51 46 45 46
77 85 78 68 63 61 44 35 43 47 51 55 62 58 57 57 57 57 56 58 59 49 52 57 63 69 73 74 78 82 85 87 92 97 104 90 74 61 54 51 49 47 46
73 74 75 70 68 68 45 58 53 46 44 46 50 53 55 56 54 50 47 55 50 50 56 57 64 71 70 76 80 81 86 89 95 103 110 93 78 66 56 52 51 49 48
69 77 74 71 68 61 56 51 48 51 47 51 57 62 64 55 56 56 54 52 48 55 54 58 68 70 72 76 79 81 86 93 96 105 108 87 75 68 64 60 59 59 59
55 62 75 76 72 60 44 45 46 41 51 48 52 54 48 52 54 58 48 49 52 59 51 60 66 71 75 75 77 82 88 95 98 109 104 84 73 65 61 60 60 61 61
45 53 62 72 72 64 44 47 37 33 33 42 48 51 46 50 50 42 51 52 56 55 53 61 69 75 74 74 82 84 91 99 106 110 99 82 75 68 65 64 64 63 58
45 45 52 62 68 67 57 58 59 60 43 43 47 52 46 47 51 50 51 52 56 53 51 61 69 73 73 74 83 87 95 101 108 109 97 83 76 72 70 68 64 57 50
48 36 45 56 59 64 65 58 54 42 45 45 49 51 44 48 46 49 51 55 59 49 54 65 72 70 71 76 84 89 96 103 109 109 96 84 77 71 71 68 61 51 43
51 32 40 50 52 55 64 67 51 45 36 40 36 28 34 42 44 47 54 49 46 48 54 62 67 67 71 74 84 90 97 103 108 99 85 80 75 72 67 61 52 45 37
50 36 38 46 50 53 60 62 57 49 42 39 40 24 31 37 41 47 50 45 46 49 56 66 61 64 69 78 85 91 96 102 106 95 82 77 74 69 61 54 47 37 30
52 38 37 45 47 51 56 56 54 46 39 34 35 36 34 43 51 50 51 48 48 48 62 59 59 65 72 79 86 92 99 106 105 90 82 76 70 63 56 47 38 31 24
Wind_Direction
217 250 277 284 288 290 288 282 282 282 282 281 277 273 274 277 284 290 293 292 299 302 303 307 310 312 313 313 314 316 315 316 318 319 318 318 320 319 318 317 310 302 296
240 253 272 283 292 288 286 287 287 285 284 284 281 278 283 291 295 295 293 295 298 300 305 309 311 312 312 314 315 316 315 317 318 320 321 322 324 322 320 319 311 304 299
232 273 270 295 290 289 287 289 287 286 287 281 280 285 291 293 293 291 294 298 299 302 306 309 310 311 312 313 315 315 316 318 319 322 324 325 324 324 324 318 312 308 302
256 276 279 282 282 290 286 289 292 287 288 282 282 282 286 289 293 293 294 297 302 305 307 309 309 310 313 314 314 317 316 318 321 324 325 325 324 323 322 315 312 308 299
249 262 268 262 268 286 291 298 307 297 293 291 286 286 289 291 294 296 300 303 305 306 307 307 309 311 313 315 316 315 317 320 324 325 326 326 326 324 321 313 310 307 294
237 242 252 260 272 279 283 292 291 295 294 296 295 296 298 299 299 300 302 303 303 304 305 308 310 312 314 315 316 317 319 323 325 327 327 329 328 324 320 313 307 303 285
262 249 253 263 254 257 271 283 286 289 293 291 290 291 292 294 296 298 300 300 302 304 307 310 314 314 315 315 316 317 322 325 327 329 330 331 329 324 320 313 306 298 286
258 257 253 270 243 241 264 282 288 288 287 284 289 290 293 297 299 301 299 301 304 308 310 313 315 314 315 317 319 322 324 327 328 330 333 331 327 324 322 315 304 296 291
250 239 246 261 236 238 266 271 293 292 288 294 305 300 297 299 301 301 300 303 307 309 312 313 313 314 315 319 321 324 325 328 329 332 333 333 327 325 324 317 304 298 292
255 249 245 255 275 261 268 279 266 282 298 301 295 292 292 294 299 302 306 308 307 310 314 313 313 315 318 322 323 325 326 328 331 332 334 330 327 325 323 320 309 291 285
256 258 252 251 249 245 271 284 276 282 288 283 283 285 293 296 299 304 307 307 308 312 313 313 312 317 320 324 324 326 326 328 331 331 333 333 329 325 321 321 313 298 282
259 254 254 253 251 246 258 270 283 285 284 274 281 288 292 302 302 302 305 307 310 311 312 311 313 319 324 324 326 325 327 331 332 332 332 334 329 326 321 319 318 310 302
258 257 257 258 258 256 261 268 276 285 284 275 285 293 293 298 301 303 304 307 307 309 312 311 316 320 324 325 326 326 328 332 336 338 337 336 330 328 323 316 315 309 305
263 261 256 260 261 264 255 264 276 285 286 298 296 298 301 304 304 304 303 305 306 310 310 313 315 320 323 325 325 325 329 332 337 341 338 336 333 331 326 317 312 310 307
255 258 263 264 263 252 253 251 269 284 292 290 296 300 305 304 301 299 300 302 305 307 311 316 317 320 323 325 323 326 331 334 339 343 339 335 333 329 325 320 311 306 302
256 259 260 263 256 257 252 253 263 273 285 293 294 299 298 300 299 300 300 301 305 307 313 316 317 320 321 323 323 328 332 335 341 343 341 337 333 330 324 320 314 308 303
250 258 259 259 259 253 244 254 251 272 278 281 285 288 294 296 296 299 301 302 305 311 317 315 317 318 321 322 324 329 331 336 341 341 344 338 334 329 323 319 317 312 305
251 254 257 256 252 254 247 242 261 257 275 275 277 282 289 290 292 302 307 300 307 316 317 316 317 317 321 323 328 330 333 338 340 340 341 338 336 333 331 325 321 316 310
250 248 251 253 252 249 243 239 236 255 265 274 273 279 283 286 291 293 287 296 307 316 315 316 315 319 321 324 329 330 336 337 339 340 341 337 336 335 334 330 326 322 318
260 250 246 248 250 246 237 245 253 253 256 263 266 272 284 283 287 293 290 295 304 310 311 314 318 322 322 327 332 332 334 337 339 341 340 337 336 334 331 327 323 319 317
268 256 248 244 243 243 227 234 230 238 244 257 271 276 273 279 284 290 286 296 299 307 312 314 317 320 323 328 331 331 332 336 337 341 339 337 335 333 331 328 325 322 319
277 253 250 247 242 238 228 233 232 237 246 260 265 268 273 276 278 280 287 295 297 302 310 315 316 319 322 327 329 332 333 335 337 339 339 337 336 334 331 330 327 325 322
270 262 245 244 244 237 227 227 234 238 248 259 260 269 277 277 276 286 290 287 295 301 313 313 316 319 324 327 330 331 333 335 339 339 338 336 334 334 331 331 329 328 326
267 271 242 235 242 238 227 221 224 227 238 252 258 267 280 282 290 286 286 292 299 308 306 309 316 322 328 330 329 329 335 337 337 338 337 335 333 335 334 332 332 333 333
272 274 242 229 233 235 227 220 219 219 223 234 248 222 253 272 287 287 292 292 300 306 309 313 317 327 326 329 329 329 332 335 338 338 338 336 335 334 335 337 337 337 339
268 271 236 227 227 230 222 217 218 215 218 233 232 245 255 270 273 282 293 292 298 310 308 315 321 327 329 329 328 331 335 336 338 338 338 336 336 337 339 339 342 345 347
Height
10861 10853 10841 10847 10845 10847 10846 10844 10844 10842 10840 10838 10837 10834 10831 10829 10829 10826 10824 10819 10815 10811 10804 10799 10788 10783 10775 10766 10756 10745 10734 10724 10715 10705 10691 10677 10662 10647 10639 10627 10613 10603 10594
10850 10856 10838 10840 10839 10841 10841 10836 10836 10833 10834 10833 10831 10828 10825 10824 10821 10819 10815 10811 10807 10803 10795 10789 10780 10771 10764 10753 10743 10734 10722 10711 10698 10689 10675 10660 10648 10627 10614 10607 10594 10585 10579
10841 10831 10827 10830 10830 10834 10830 10826 10827 10825 10827 10826 10824 10822 10820 10816 10813 10810 10807 10803 10797 10792 10785 10777 10769 10762 10751 10741 10731 10722 10709 10698 10683 10672 10659 10644 10629 10613 10595 10584 10579 10567 10561
10826 10821 10819 10826 10827 10827 10819 10818 10818 10817 10818 10818 10816 10814 10812 10808 10806 10802 10800 10794 10787 10780 10772 10766 10756 10749 10739 10727 10717 10707 10694 10683 10670 10656 10642 10627 10612 10597 10585 10566 10559 10555 10546
10822 10820 10821 10829 10825 10818 10813 10809 10810 10809 10807 10807 10807 10804 10804 10801 10799 10793 10789 10782 10775 10766 10760 10754 10747 10736 10726 10715 10705 10693 10682 10669 10657 10643 10628 10611 10595 10578 10565 10554 10543 10539 10533
10822 10819 10819 10815 10810 10806 10803 10802 10799 10799 10796 10795 10794 10792 10791 10789 10788 10784 10776 10769 10765 10756 10749 10744 10736 10724 10714 10702 10690 10681 10668 10656 10643 10629 10611 10594 10577 10560 10547 10537 10528 10525 10520
10802 10803 10801 10798 10796 10801 10798 10793 10791 10789 10787 10786 10784 10783 10780 10779 10777 10774 10767 10757 10751 10746 10741 10731 10721 10711 10701 10689 10678 10667 10657 10642 10629 10613 10596 10577 10561 10545 10532 10521 10514 10511 10509
10796 10801 10805 10797 10790 10792 10793 10790 10785 10778 10777 10775 10774 10774 10770 10768 10765 10762 10758 10746 10738 10733 10727 10719 10710 10701 10689 10678 10666 10653 10640 10626 10613 10598 10581 10562 10544 10532 10522 10512 10503 10499 10497
10779 10789 10791 10785 10783 10778 10780 10775 10775 10772 10766 10765 10766 10764 10759 10755 10753 10751 10750 10742 10733 10725 10719 10711 10701 10690 10679 10668 10654 10644 10630 10616 10597 10584 10569 10551 10535 10523 10513 10504 10496 10490 10486
10765 10773 10768 10762 10759 10762 10760 10763 10766 10764 10757 10753 10754 10752 10747 10743 10740 10739 10736 10734 10722 10715 10707 10698 10688 10679 10669 10658 10644 10632 10619 10606 10590 10571 10555 10536 10523 10514 10503 10495 10490 10485 10479
10750 10752 10753 10752 10755 10755 10756 10760 10763 10757 10751 10743 10743 10739 10735 10731 10728 10725 10722 10718 10712 10703 10696 10689 10678 10668 10659 10649 10635 10622 10608 10593 10577 10561 10544 10527 10512 10503 10495 10488 10482 10477 10472
10735 10732 10735 10736 10742 10750 10754 10752 10748 10741 10738 10734 10734 10730 10725 10722 10717 10714 10710 10703 10698 10691 10684 10678 10668 10657 10648 10637 10626 10613 10601 10586 10567 10549 10533 10519 10504 10493 10485 10476 10471 10465 10460
10717 10714 10718 10729 10731 10738 10742 10740 10734 10732 10731 10726 10723 10720 10717 10713 10705 10702 10696 10692 10687 10679 10674 10667 10658 10649 10640 10626 10614 10602 10591 10576 10557 10539 10522 10509 10496 10484 10476 10468 10461 10454 10449
10701 10698 10706 10715 10722 10727 10726 10725 10726 10724 10723 10719 10712 10706 10704 10702 10695 10691 10686 10681 10674 10669 10663 10656 10647 10640 10629 10617 10605 10592 10579 10565 10547 10529 10513 10500 10488 10474 10463 10455 10449 10443 10437
10689 10691 10693 10703 10709 10711 10710 10710 10712 10714 10709 10705 10700 10696 10697 10691 10687 10683 10677 10672 10667 10661 10653 10646 10638 10632 10621 10609 10596 10584 10569 10554 10537 10519 10502 10488 10476 10465 10453 10443 10436 10430 10425
10673 10672 10682 10690 10692 10691 10698 10701 10704 10702 10698 10693 10687 10687 10686 10681 10677 10673 10668 10662 10658 10653 10648 10641 10630 10622 10613 10600 10587 10573 10559 10544 10525 10509 10491 10476 10462 10450 10438 10430 10423 10416 10410
10662 10652 10663 10674 10673 10678 10690 10695 10692 10693 10690 10684 10679 10679 10675 10670 10666 10665 10658 10651 10649 10645 10639 10632 10623 10614 10603 10591 10578 10565 10550 10535 10516 10496 10480 10460 10449 10437 10427 10417 10408 10401 10395
10641 10640 10637 10650 10659 10665 10679 10678 10680 10687 10681 10676 10669 10665 10664 10659 10657 10657 10648 10641 10640 10636 10630 10622 10614 10605 10593 10582 10568 10555 10539 10524 10508 10484 10465 10446 10430 10418 10410 10402 10393 10386 10379
10619 10623 10624 10628 10633 10650 10657 10666 10674 10677 10672 10664 10659 10656 10656 10649 10647 10648 10641 10635 10633 10628 10622 10614 10606 10594 10583 10573 10560 10544 10529 10513 10498 10477 10455 10437 10422 10407 10394 10386 10376 10367 10358
10600 10603 10606 10608 10615 10629 10643 10651 10657 10661 10654 10652 10650 10644 10646 10641 10640 10638 10632 10629 10627 10622 10614 10608 10598 10585 10574 10563 10551 10535 10518 10502 10491 10469 10446 10426 10413 10401 10391 10379 10368 10356 10345
10588 10583 10585 10589 10595 10611 10622 10628 10637 10639 10640 10641 10641 10641 10636 10634 10632 10632 10625 10623 10621 10615 10608 10600 10590 10577 10566 10554 10540 10525 10508 10490 10470 10454 10435 10416 10401 10387 10377 10365 10354 10341 10328
10577 10572 10568 10571 10579 10589 10603 10610 10619 10625 10629 10637 10635 10631 10628 10624 10623 10622 10617 10616 10613 10608 10601 10592 10581 10569 10557 10546 10532 10515 10497 10480 10462 10439 10421 10402 10387 10374 10361 10350 10336 10324 10314
10559 10562 10561 10557 10562 10573 10584 10593 10604 10612 10622 10625 10622 10622 10622 10619 10615 10613 10611 10608 10605 10600 10593 10584 10573 10562 10549 10536 10521 10505 10489 10468 10445 10426 10405 10390 10377 10365 10349 10333 10320 10310 10301
10538 10547 10550 10550 10550 10556 10567 10579 10588 10597 10608 10613 10615 10617 10616 10612 10606 10604 10602 10600 10595 10591 10585 10576 10568 10554 10541 10528 10514 10497 10478 10460 10445 10424 10403 10382 10367 10352 10338 10325 10312 10300 10291
10517 10529 10537 10537 10537 10541 10550 10562 10575 10583 10592 10600 10603 10605 10605 10601 10599 10597 10594 10592 10588 10583 10574 10568 10559 10548 10535 10520 10505 10490 10474 10453 10430 10409 10392 10374 10358 10342 10328 10315 10304 10296 10288
10498 10510 10520 10525 10523 10528 10535 10547 10561 10572 10584 10592 10594 10596 10597 10596 10591 10590 10589 10584 10580 10574 10565 10558 10548 10537 10524 10511 10497 10479 10460 10438 10416 10397 10382 10366 10351 10335 10322 10311 10302 10293 10287